Simultaneous Nadir Overpasses (SNOs) Predictions

Prediction of SNOs between GOES-14 and NOAA-20 Satellite Orbit:

Table of predicted SNOs for the next 14.0 days since TLE Epoch: 8/26/2022
Index Date Time (GOES-14) GOES-14 Lat,Lon NOAA-20 Lat,Lon Distance(km) Time Diff (sec)
1 08/29/2022 08:26:31 -0.50,-104.43 -0.37,-105.11 77.45 80
2 08/30/2022 08:05:06 -0.49,-104.42 -1.36,-100.58 437.55 80
3 08/31/2022 20:27:05 0.50,-104.61 0.25,-105.90 146.52 80
4 09/01/2022 20:11:00 0.50,-104.62 1.24,-101.37 370.19 80
5 09/03/2022 08:32:49 -0.51,-104.44 -0.04,-106.64 251.02 80
6 09/04/2022 08:11:24 -0.51,-104.42 -1.03,-102.11 263.20 80
7 09/05/2022 20:33:21 0.52,-104.57 -0.14,-107.42 325.18 80
8 09/06/2022 20:17:18 0.52,-104.58 0.91,-102.90 191.05 80
9 09/08/2022 08:39:05 -0.52,-104.43 0.34,-108.16 426.45 80
10 09/09/2022 08:17:42 -0.53,-104.41 -0.71,-103.64 87.87 80
